Showing default

TYVAK-182A, 48271

Orbit data source: Space-Track

TYVAK-182A, 48271 is an Italian payload satellite in SSO that was launched on Thu, 29 Apr 2021 UTC via a VEGA launch vehicle from the French Guiana (FRGUI). Payload-class satellites include a variety of spacecraft equipped with specific instruments for various scientific and technological missions. These include communications satellites like Starlink; space stations such as the ISS; scientific satellites like the Hubble; Earth observation satellites from companies like Planet Labs, Umbra, and HawkEye 360; GPS; miniature CubeSats for education and research; and military/defense satellites.

Loading next visibility...
Identifier
48271, 2021-034D
Orbit
SSO
Country
Flag of ITIT
Related business
Manufacturer
Tyvak Intl
Mission
Operational Commercial Communications
Bus & Motor
CUBESAT 6U, Unknown motor
Mass
10 kg wet, 10 kg dry
Launch date (UTC)
2021-04-29 (5 years ago)
Launch vehicle
VEGA
Launch site
French Guiana (FRGUI)
Object type
Payload
Rocket body
Debris
Shape & HBR
Box + 1 Tether, 0.3 m
Radar Cross Section
0.035 m², Medium (>0.1 m² and < 1m²)

Expand to show TLE details & history
Last TLE update: 22 hours ago

TLE from 22 hours ago
0 TYVAK-182A
1 48271U 21034D   25348.71590592  .00006084  00000-0  44512-3 0  9999
2 48271  97.6010  45.8442 0005406 233.5874 126.4854 15.03948497252088
Epoch: 2025-12-14T17:10Z
TLE epoch observation values (Epoch: 2025-12-14T17:10:54.271Z)
Latitude
Longitude
64.49323°
Altitude
560.029 km
Speed
7.58 km/s
True Right ascension
03h 03m 22s
True Declination
0° 00' 00"
Sunlit
Object was in full shadow at epoch
Visualization orbit readout
Latitude
Unknown
Longitude
Unknown
Altitude
Unknown
Speed
Unknown
Apparent Right ascension
Unknown
Apparent Declination
Unknown
Sunlit
N/A
Visualization observer readout
Local Sidereal Time
13:24:46
Azimuth
Unknown
Elevation
Unknown
Doppler factor
Unknown
Orbital elements
Apogee altitude
555.477 km
Perigee altitude
547.985 km
Semi-major axis
6,929.868 km
Eccentricity
0.00054
Inclination
97.601°
RAAN
45.8442°
Arg. of periapsis
233.5874°
True anomaly
126.53519°
Mean anomaly
126.4854°
Eccentric anomaly
126.5103°
Mean motion
3.76232 °/min
Orbital period
95.69 mins
BSTAR
0.00044512
Loading maneuver chart data...
Computing Atmospheric mass density...
Loading historical data...
Loading historical data...
Loading historical data...
Loading historical data...
Loading historical data...
Loading historical data...
Loading historical data...
Other satellites on launch #34 in the year 2021 (2021-04-29 UTC)

Documentation

Showing up to 5 results
|